This is the latest recevied weather packets stored in our database for station/object N3LF. If no packets are shown the sender has not sent any weather packets the latest 10 day(s).
| Time | Temp. | Humidity | Pressure | Rain* | Wind** | Luminosity | Snow |
|---|---|---|---|---|---|---|---|
| 1777142941 | 25.56° C | 61% | 1012.3 hPa | 0 mm | - | 742 W/m² | - |
| 1777142637 | 25° C | 59% | 1012.4 hPa | 0 mm | - | 756 W/m² | - |
| 1777142335 | 25° C | 59% | 1012.5 hPa | 0 mm | - | 752 W/m² | - |
| 1777142035 | 25.56° C | 60% | 1012.5 hPa | 0 mm | - | 748 W/m² | - |
| 1777141731 | 25° C | 62% | 1012.6 hPa | 0 mm | - | 287 W/m² | - |
| 1777141429 | 25° C | 58% | 1012.2 hPa | 0 mm | - | 818 W/m² | - |
| 1777141125 | 25° C | 62% | 1012.5 hPa | 0 mm | - | 783 W/m² | - |
| 1777140823 | 25° C | 65% | 1012.7 hPa | 0 mm | - | 744 W/m² | - |
| 1777140519 | 24.44° C | 66% | 1012.6 hPa | 0 mm | - | 736 W/m² | - |
| 1777140217 | 23.89° C | 65% | 1012.5 hPa | 0 mm | - | 771 W/m² | - |
| 1777139914 | 23.89° C | 69% | 1012.6 hPa | 0 mm | - | 232 W/m² | - |
| 1777139612 | 23.89° C | 65% | 1012.6 hPa | 0 mm | - | 167 W/m² | - |
| 1777139311 | 23.89° C | 64% | 1012.7 hPa | 0 mm | - | 834 W/m² | - |
| 1777139008 | 25° C | 65% | 1012.7 hPa | 0 mm | - | 201 W/m² | - |
| 1777138705 | 24.44° C | 64% | 1012.7 hPa | 0 mm | - | 785 W/m² | - |
| 1777138400 | 23.33° C | 67% | 1012.8 hPa | 0 mm | - | 764 W/m² | - |
| 1777138096 | 23.33° C | 68% | 1012.9 hPa | 0 mm | - | 174 W/m² | - |
| 1777137793 | 25° C | 65% | 1013 hPa | 0 mm | - | 203 W/m² | - |
| 1777137489 | 24.44° C | 68% | 1012.8 hPa | 0 mm | - | 806 W/m² | - |
| 1777137186 | 23.89° C | 67% | 1013 hPa | 0 mm | - | 778 W/m² | - |
| 1777136883 | 23.33° C | 68% | 1013 hPa | 0 mm | - | 252 W/m² | - |
| 1777136579 | 24.44° C | 66% | 1013.1 hPa | 0 mm | - | 567 W/m² | - |
| 1777136277 | 23.89° C | 70% | 1013.2 hPa | 0 mm | - | 725 W/m² | - |
| 1777135974 | 23.89° C | 70% | 1013.1 hPa | 0 mm | - | 711 W/m² | - |
| 1777135675 | 23.33° C | 71% | 1013.3 hPa | 0 mm | - | 718 W/m² | - |
* Rain latest hour (hover to see other rain measurements)
** Current wind speed in m/s (hover to see current wind gust speed)